GFSNIL_925_spd_000.txt.gz
Wind_Speed
25 24 22 19 17 15 13 11 10 12 10 10 9 9 9 8 8 6 7 6 7 10
25 25 21 18 17 14 12 10 11 12 11 10 11 11 11 10 9 8 9 10 10 12
26 24 22 20 20 19 13 10 10 11 11 12 10 11 13 12 11 11 10 10 10 11
26 24 23 22 20 14 14 13 11 10 11 13 12 13 16 15 12 11 11 12 12 12
25 25 25 23 20 19 16 17 17 7 10 14 13 14 18 17 14 13 13 13 13 12
28 28 26 30 29 25 23 22 23 20 20 22 19 19 20 19 17 14 14 14 13 13
27 26 28 29 33 31 29 30 31 33 31 17 20 22 22 19 17 15 15 15 15 15
22 23 26 30 38 40 38 41 37 37 26 20 24 23 24 20 19 17 17 16 17 17
22 25 32 31 36 41 48 46 40 34 25 22 24 24 24 21 19 18 17 16 15 15
25 29 30 29 33 39 37 35 29 21 18 26 24 24 24 22 21 18 16 14 12 15
26 27 29 29 32 33 31 27 22 16 19 26 26 22 23 22 18 18 15 10 7 11
27 25 24 27 29 31 30 28 25 19 19 23 23 23 25 24 20 20 17 17 19 24
26 26 27 25 23 25 25 25 23 19 21 23 21 22 25 27 25 21 23 21 17 17
27 26 25 24 22 19 18 18 18 20 24 22 25 19 23 26 23 15 13 13 9 7

GFSNIL_925_spd_003.txt.gz
Wind_Speed
24 23 21 19 14 14 11 10 10 13 12 11 10 9 8 9 8 7 6 6 7 7
25 25 23 20 21 14 13 13 13 16 18 16 14 12 10 10 10 7 8 10 11 11
27 26 22 20 18 20 18 18 17 17 19 19 18 18 16 13 13 11 10 11 10 11
28 27 27 24 25 23 22 21 22 26 26 22 19 16 14 12 9 11 10 12 12 12
28 30 30 30 29 29 30 29 32 30 25 21 20 19 16 14 13 14 13 14 15 14
33 32 32 34 34 36 31 32 32 29 26 26 25 21 18 16 14 14 14 13 14 14
33 33 34 36 38 35 36 37 33 29 28 25 23 19 16 16 16 16 15 14 15 14
31 32 33 36 38 38 37 39 35 31 27 23 20 18 17 17 17 17 16 15 14 15
32 32 34 34 35 32 32 28 24 24 24 24 23 20 22 19 17 18 18 16 14 17
31 32 32 32 31 33 32 26 25 30 25 20 19 20 22 21 19 19 17 16 16 15
30 29 28 29 31 30 30 32 28 25 23 19 18 20 18 18 21 20 21 18 17 16
28 29 27 27 26 26 28 29 27 24 21 19 18 20 23 22 20 21 21 20 18 17
28 27 25 24 22 19 19 21 20 20 21 20 19 21 23 23 25 24 25 18 17 21
25 24 21 19 17 15 13 14 19 21 20 20 17 18 22 24 21 20 17 16 17 17

GFSNIL_925_spd_006.txt.gz
Wind_Speed
29 26 22 20 20 20 19 19 26 25 22 18 18 16 15 13 12 11 10 7 5 5
31 29 25 25 26 21 22 18 23 25 22 22 18 18 17 16 14 9 11 10 11 9
33 34 32 30 28 28 24 25 25 24 24 22 22 21 20 16 16 15 13 13 14 16
34 35 37 28 29 31 29 31 25 28 25 25 24 24 24 20 20 21 19 15 15 9
38 35 34 35 30 34 30 30 35 28 28 27 27 27 27 26 20 20 22 19 15 13
35 36 36 37 36 32 33 33 32 32 30 30 30 31 31 29 25 21 21 19 18 17
38 39 38 37 37 37 35 34 30 30 31 32 33 34 30 28 25 23 20 17 15 14
39 39 37 36 38 35 33 32 28 26 27 28 29 28 27 26 25 23 20 17 16 17
39 37 36 36 33 30 28 27 23 25 27 28 30 28 28 27 25 25 23 20 16 17
37 37 37 34 31 30 29 23 24 26 32 30 24 23 25 29 27 25 22 19 17 19
34 35 33 31 29 26 24 24 21 23 27 25 25 26 19 21 27 24 21 16 17 19
31 30 29 27 24 22 20 18 21 24 24 23 22 25 21 21 25 25 20 21 19 19
31 30 26 24 20 18 17 19 20 23 23 22 20 20 20 22 22 18 20 20 21 22
25 24 23 22 18 16 15 13 16 17 16 20 24 17 18 21 24 18 18 23 23 20

GFSNIL_925_spd_009.txt.gz
Wind_Speed
34 37 36 29 23 33 31 31 29 29 27 23 19 18 16 16 16 14 14 11 10 5
43 40 37 33 24 32 29 30 31 31 29 27 21 20 20 18 17 17 16 14 12 11
43 44 36 34 33 26 30 30 29 36 32 28 25 24 23 21 19 20 21 17 15 13
40 40 37 36 36 34 30 29 28 35 33 31 28 26 26 25 23 24 22 21 18 16
38 35 36 38 38 38 36 34 35 35 36 34 32 31 31 31 26 26 27 24 21 20
37 35 36 39 39 38 41 40 37 37 39 39 36 34 34 34 31 27 27 27 23 21
39 40 38 38 41 40 38 40 39 41 40 39 38 36 35 34 31 29 25 26 25 24
41 39 37 36 36 40 37 38 38 39 37 38 37 35 37 35 33 28 27 24 23 23
37 38 36 36 35 35 38 35 35 34 35 33 33 33 33 35 31 26 27 26 24 24
40 36 38 34 33 34 34 32 32 31 30 32 33 33 28 30 30 30 30 30 27 24
40 40 34 35 34 31 33 33 33 31 30 32 32 28 26 29 31 31 32 31 30 27
42 38 35 34 30 29 27 27 28 28 29 28 25 29 25 18 27 34 33 28 21 21
40 35 31 33 29 29 31 23 27 22 22 25 27 25 28 31 24 24 26 25 24 22
31 31 35 35 33 30 25 23 18 18 21 23 26 28 27 26 25 25 25 22 20 23

GFSNIL_925_spd_012.txt.gz
Wind_Speed
44 40 36 32 32 28 34 37 33 32 30 27 25 21 19 18 16 16 16 14 13 9
44 40 32 34 30 31 31 36 37 34 33 30 28 24 21 20 18 17 15 16 13 13
44 40 36 36 33 29 29 36 37 36 36 35 32 27 24 23 20 19 18 17 15 14
39 38 38 41 38 36 31 37 37 40 39 38 35 31 28 25 22 21 22 21 20 18
37 36 40 45 44 39 38 36 41 41 42 40 38 35 32 29 27 25 25 22 22 22
36 36 40 42 44 45 41 41 40 41 42 42 40 38 35 33 31 29 27 27 26 23
38 39 40 42 44 42 42 42 42 43 40 40 41 40 38 37 34 32 29 27 27 27
41 37 37 39 42 40 39 41 42 41 39 40 40 42 41 39 36 35 32 28 27 25
39 38 38 38 37 37 36 39 38 37 40 40 41 42 42 40 38 37 34 31 29 25
39 38 38 37 35 35 35 34 34 34 37 37 41 43 40 38 35 34 32 30 31 29
39 38 36 35 36 32 32 32 34 35 34 35 38 40 34 35 29 29 31 32 31 28
40 36 35 35 36 32 30 32 35 37 37 34 31 37 29 25 25 30 32 32 29 29
40 37 35 36 34 33 35 35 37 38 34 30 28 30 24 24 30 32 30 28 24 23
39 38 37 33 33 34 34 34 34 32 30 24 25 21 21 29 28 22 19 21 20 18

GFSNIL_925_spd_015.txt.gz
Wind_Speed
43 40 40 38 35 32 31 32 27 31 31 29 27 23 22 20 19 16 17 17 14 11
41 37 38 40 37 34 33 32 29 32 34 32 29 27 24 22 22 19 19 18 15 14
43 42 39 40 39 36 34 33 30 33 36 33 31 29 27 25 23 21 20 18 17 15
38 38 38 42 41 39 35 35 36 35 38 36 34 32 31 28 25 24 22 21 18 16
42 38 38 43 44 42 38 35 33 33 36 39 36 36 35 33 29 28 26 25 22 21
38 39 40 44 43 45 42 40 37 34 36 39 38 37 39 36 33 31 30 27 26 23
40 41 42 43 42 41 44 42 39 39 38 41 41 40 39 40 37 34 33 30 28 26
38 38 37 39 41 42 40 42 42 40 39 40 41 41 41 41 40 38 36 32 31 27
39 38 38 39 38 38 39 39 40 41 42 42 40 40 40 41 39 39 37 35 30 29
37 37 38 37 35 37 37 38 41 40 41 42 42 40 39 39 35 35 38 35 33 33
39 39 36 35 37 35 35 39 39 40 40 41 42 42 40 36 30 23 33 35 31 34
39 38 36 37 37 34 32 33 36 39 40 41 40 39 38 32 30 29 31 30 29 27
41 38 38 39 38 37 36 33 33 39 41 41 38 37 36 29 31 27 30 25 22 23
37 40 41 36 35 38 37 33 33 34 35 40 40 35 29 32 31 29 25 23 20 20

GFSNIL_925_spd_018.txt.gz
Wind_Speed
43 39 40 40 38 33 34 33 30 27 26 26 25 22 20 19 19 17 16 14 13 10
43 40 40 41 41 37 34 31 31 29 27 27 27 25 23 22 22 19 17 15 16 14
44 46 44 43 43 41 37 34 31 29 28 28 29 28 26 25 24 21 20 18 18 17
39 40 40 41 46 43 40 37 33 31 30 29 32 30 29 28 26 25 22 20 20 19
41 40 40 44 46 44 41 39 36 34 33 31 32 34 32 31 30 29 26 24 23 22
39 38 39 42 44 45 42 39 36 36 37 36 35 36 35 34 34 32 30 28 27 26
41 42 42 45 45 44 45 41 39 40 38 36 36 37 38 37 36 36 35 33 30 29
41 40 39 39 41 42 43 44 43 42 42 40 38 38 40 39 39 39 38 38 34 29
38 38 41 41 40 40 40 41 41 43 44 43 43 42 40 40 40 39 40 37 34 30
37 37 38 37 37 40 40 40 41 40 41 43 46 44 41 40 40 39 37 36 34 30
37 38 35 35 39 39 39 41 40 40 43 42 44 45 43 43 40 39 38 32 28 30
39 38 37 37 40 39 36 36 38 37 38 42 44 46 45 43 40 37 33 27 26 28
40 39 37 38 37 36 35 33 32 32 40 46 46 47 44 42 38 31 31 26 23 29
35 37 39 38 34 33 32 27 31 33 37 45 47 42 42 40 38 33 30 24 25 24

GFSNIL_925_spd_021.txt.gz
Wind_Speed
37 34 34 31 27 25 23 21 21 25 24 23 20 19 18 14 12 13 12 11 11 9
38 37 35 33 33 27 26 21 21 25 24 23 21 21 21 17 16 16 14 13 13 12
39 39 38 32 33 31 28 30 22 25 24 23 23 21 23 19 19 19 16 15 15 16
38 39 38 35 34 35 32 32 29 28 25 25 24 23 25 24 20 22 20 20 19 18
39 38 38 39 38 38 37 36 36 32 29 26 24 25 27 28 23 25 23 24 20 20
38 38 40 41 40 37 36 36 33 34 33 28 26 28 29 30 28 29 29 26 26 30
41 44 42 40 39 38 38 36 36 37 35 32 29 30 31 30 30 30 30 31 28 21
44 41 38 39 41 40 38 39 40 38 36 35 33 33 33 31 32 30 29 30 26 27
37 39 40 38 38 36 38 37 37 37 38 38 37 37 40 40 31 31 33 28 28 28
33 35 38 39 38 40 40 38 38 37 37 39 40 42 46 44 34 31 33 30 27 25
35 36 36 36 39 38 38 39 38 38 38 38 41 46 51 49 44 31 30 30 29 27
40 37 34 36 39 37 35 35 37 35 37 40 42 48 51 49 39 33 31 28 27 26
29 32 35 36 34 33 36 37 35 36 38 41 41 43 49 49 37 31 29 26 25 30
32 35 35 33 33 33 33 30 34 37 37 40 45 39 45 47 37 31 27 26 27 27

GFSNIL_925_spd_024.txt.gz
Wind_Speed
33 31 29 27 25 22 21 19 18 21 22 21 18 16 15 14 13 13 13 13 13 11
35 35 33 31 28 26 22 19 19 21 23 22 21 19 17 17 16 16 15 14 14 13
37 36 36 31 31 28 28 26 21 23 23 23 22 21 21 19 19 18 18 18 16 16
38 38 36 35 34 34 31 28 27 26 24 25 24 24 23 23 21 21 20 20 19 19
39 39 38 38 38 36 35 34 31 29 27 26 27 27 26 26 25 25 23 23 22 19
39 39 40 38 38 37 37 36 35 33 32 31 30 30 29 28 28 27 26 24 24 21
40 43 41 39 39 39 38 36 36 36 35 34 33 32 31 30 30 29 29 27 25 23
41 39 37 38 38 39 38 39 38 36 36 36 35 35 35 34 33 32 31 29 27 26
34 35 37 35 37 37 38 38 37 38 38 38 39 40 42 39 36 34 32 31 29 26
33 36 35 34 34 37 38 36 38 38 39 40 42 45 47 49 41 38 35 33 30 27
34 33 30 33 37 37 36 39 39 39 40 40 43 47 49 50 47 34 33 31 30 29
33 32 33 36 38 37 35 35 38 37 38 42 43 46 50 51 41 37 32 31 30 29
32 33 35 35 34 34 35 36 35 37 40 42 42 45 50 52 41 36 37 35 32 34
30 33 34 32 32 32 34 33 34 35 36 38 42 41 48 53 47 40 36 36 34 32

GFSNIL_925_spd_027.txt.gz
Wind_Speed
30 29 30 26 23 24 22 21 18 28 24 22 20 18 16 16 14 14 13 13 13 10
36 35 31 31 32 23 23 20 20 21 22 23 23 21 20 19 18 15 16 14 14 13
38 37 35 30 29 31 26 25 17 24 23 24 25 24 23 21 19 18 17 16 17 15
40 39 37 36 33 33 30 27 31 23 26 26 27 26 26 25 21 23 21 19 18 17
39 40 40 40 39 35 35 32 28 29 28 28 28 28 28 27 26 23 24 22 21 20
40 40 42 40 39 38 37 36 34 31 31 31 31 30 31 30 29 26 26 25 25 24
41 44 41 39 39 39 39 37 36 35 35 35 35 35 36 36 34 32 31 32 29 28
37 36 35 36 39 38 38 39 38 37 37 37 37 37 37 36 34 34 34 33 31 28
37 36 37 35 36 36 38 40 39 40 41 41 41 41 43 40 37 35 33 31 29 28
34 36 35 33 35 39 39 36 40 41 40 41 43 45 47 47 41 36 35 33 32 30
35 33 35 37 39 36 37 39 38 39 40 41 44 48 50 50 49 40 35 36 37 36
33 33 34 37 37 35 36 37 39 38 39 42 44 45 50 50 44 42 40 38 38 38
32 34 35 35 34 34 34 35 33 37 40 42 43 42 45 51 42 40 41 41 40 44
31 33 32 31 31 32 32 31 33 34 35 38 40 42 46 49 47 45 40 38 41 41

GFSNIL_925_spd_030.txt.gz
Wind_Speed
29 32 36 23 25 26 23 26 25 28 28 25 22 21 18 17 16 15 14 11 14 9
38 31 32 29 29 24 26 20 25 29 33 30 25 25 23 20 19 17 18 17 16 16
40 38 33 37 30 30 25 28 17 29 32 29 27 25 25 22 22 23 20 20 20 18
38 39 39 32 36 31 35 23 30 22 30 30 29 29 28 28 25 26 26 23 22 26
38 38 40 41 36 36 31 37 29 31 29 29 31 30 32 30 30 28 30 32 26 26
38 40 39 39 41 37 38 33 38 31 32 32 31 32 32 32 31 31 27 29 29 28
37 38 37 37 38 40 38 40 39 38 35 34 36 35 35 34 34 34 33 29 29 30
40 37 37 37 37 37 40 42 41 39 39 38 37 37 37 36 36 35 34 33 31 33
39 40 38 38 38 39 41 40 39 40 39 39 40 41 43 41 38 37 36 34 34 33
39 39 40 39 39 40 39 38 40 39 39 42 43 45 47 48 42 38 38 37 35 36
34 37 37 39 39 38 38 39 38 38 40 40 43 46 48 49 50 41 40 40 41 41
30 31 35 38 38 37 36 36 38 38 37 41 42 42 46 47 47 45 44 43 43 43
33 32 34 35 35 34 34 34 33 35 37 39 40 39 41 45 42 40 44 42 44 47
30 34 32 30 30 30 30 29 32 33 33 36 37 38 38 41 42 45 37 38 40 42

GFSNIL_925_spd_033.txt.gz
Wind_Speed
34 35 36 29 29 28 29 28 27 28 26 26 23 21 20 20 20 18 17 15 15 14
41 32 39 40 29 26 27 31 28 29 32 30 28 25 24 24 23 20 18 19 18 19
44 46 35 38 40 29 31 27 27 32 34 36 33 29 27 25 24 23 22 21 18 20
38 39 37 36 41 41 31 26 33 25 35 39 37 33 30 29 28 26 25 23 23 21
34 34 38 37 39 41 37 37 28 31 26 33 37 35 35 33 31 30 30 29 27 27
35 34 35 37 39 37 43 42 39 31 29 34 38 37 37 37 35 35 31 34 34 32
37 36 36 36 37 40 40 39 39 41 36 34 38 41 41 39 38 39 39 35 35 39
38 39 37 38 36 40 42 37 39 38 40 39 38 41 43 41 41 41 40 40 41 38
39 38 40 38 40 37 38 40 38 40 41 40 40 40 43 42 38 40 39 39 43 40
39 40 40 40 37 38 37 35 39 39 38 41 42 42 42 43 40 38 39 41 38 39
38 38 39 38 40 37 38 38 38 38 39 37 42 42 43 43 46 40 38 38 40 39
39 39 37 38 38 38 35 35 37 36 36 39 38 37 39 40 43 43 44 39 37 39
39 37 38 38 38 37 37 36 33 35 36 37 35 34 35 37 42 39 37 37 41 42
35 39 38 36 34 33 33 31 31 30 31 31 32 32 31 36 40 36 34 36 37 37

GFSNIL_925_spd_036.txt.gz
Wind_Speed
42 40 37 35 30 28 33 33 32 30 28 26 25 23 21 21 19 19 18 15 14 12
42 39 40 38 37 30 31 31 30 32 31 30 28 26 23 23 22 21 19 20 17 17
40 44 42 38 38 35 30 31 30 31 33 32 31 30 28 27 25 23 23 22 21 23
39 39 38 40 41 40 35 26 30 31 31 34 35 35 33 31 29 28 28 26 25 24
36 35 36 39 41 42 42 39 25 31 29 37 36 37 37 36 33 32 31 31 28 29
34 36 38 39 39 42 41 39 37 29 33 35 34 37 40 39 37 35 36 35 34 34
36 36 38 41 38 36 41 41 38 39 37 31 33 35 36 39 40 38 37 37 37 38
37 37 38 37 40 38 36 41 43 40 43 39 38 36 38 40 42 41 39 39 40 41
36 37 37 38 36 38 38 40 37 42 41 43 43 39 41 41 42 43 42 41 42 42
36 35 37 37 35 34 37 37 39 38 39 40 39 39 39 41 43 39 41 41 40 41
33 34 33 33 33 33 33 34 37 37 39 38 40 39 40 40 41 39 38 39 39 40
37 35 34 33 33 34 32 33 34 35 36 38 35 35 39 39 41 43 40 39 41 42
34 37 35 36 35 36 36 34 33 33 34 35 34 34 33 35 40 37 36 37 40 40
40 40 38 35 34 32 32 32 31 31 31 31 32 33 32 34 37 38 33 33 34 34

GFSNIL_925_spd_039.txt.gz
Wind_Speed
44 40 36 33 33 29 29 30 28 29 27 24 21 19 18 18 17 17 17 17 16 16
41 39 37 35 33 35 30 28 29 29 30 28 25 22 22 21 21 20 20 20 19 18
43 42 40 37 36 36 31 29 27 29 29 31 29 26 25 25 24 23 23 22 22 23
39 41 40 38 38 37 35 32 28 28 28 29 32 31 29 29 27 26 25 25 25 25
39 41 37 40 40 39 36 33 31 29 29 30 30 32 33 32 32 30 29 29 29 29
34 32 35 39 40 39 37 35 35 33 29 32 33 34 33 34 34 35 33 33 33 33
34 35 40 40 38 38 40 40 39 38 39 35 33 35 33 33 35 37 38 37 36 36
36 38 39 38 39 39 40 41 43 42 40 41 38 35 35 37 36 36 38 40 40 39
35 36 38 38 39 40 40 41 41 43 44 44 41 43 41 39 37 38 39 40 41 42
34 35 37 38 36 38 39 38 39 40 41 41 43 42 42 41 40 40 41 42 42 42
32 33 32 31 33 33 34 36 37 38 38 37 38 42 43 42 41 42 42 44 45 44
35 32 31 32 33 34 32 33 36 37 38 38 36 38 39 38 40 42 43 40 41 41
35 34 34 35 35 36 34 33 30 30 33 37 37 37 37 36 40 36 35 36 38 36
38 38 35 34 32 30 31 28 27 29 30 32 34 34 33 34 37 35 30 30 29 31

GFSNIL_925_spd_042.txt.gz
Wind_Speed
42 42 40 35 31 30 29 25 20 20 22 21 19 15 14 14 14 15 16 17 14 12
41 40 39 38 32 30 27 26 22 22 23 23 22 20 18 17 17 18 18 18 18 16
41 44 43 40 36 31 28 25 24 22 24 24 24 23 22 21 20 20 20 20 19 19
38 39 42 42 39 34 29 26 28 26 23 24 25 25 26 25 23 23 23 22 23 22
39 40 40 41 41 36 32 28 30 27 25 26 25 25 26 28 27 27 27 26 26 26
35 36 38 40 41 38 34 32 31 32 32 30 27 27 26 26 28 30 30 29 29 29
37 37 38 40 40 39 36 35 35 34 34 33 30 28 28 28 29 30 31 32 33 33
37 37 40 39 40 40 39 38 37 37 37 36 35 35 32 31 33 32 32 33 34 35
35 37 39 40 40 39 40 39 38 40 40 41 41 40 40 39 36 35 36 38 38 37
35 36 37 39 37 39 39 37 38 40 39 40 43 44 42 41 42 40 40 41 40 39
34 34 33 32 35 35 36 36 36 38 39 39 41 42 43 43 42 42 43 44 43 41
36 34 32 33 34 34 32 32 36 37 37 39 39 38 39 38 40 42 44 39 40 40
34 35 36 36 36 35 32 31 28 32 35 38 38 37 36 36 37 32 35 35 37 38
37 37 34 31 31 29 29 26 26 28 31 33 33 33 32 32 36 34 30 28 27 27

GFSNIL_925_spd_045.txt.gz
Wind_Speed
37 29 29 28 24 22 20 20 19 21 19 17 15 13 12 11 10 9 8 9 9 6
37 34 28 30 30 23 22 17 19 22 19 18 18 17 15 13 12 11 10 9 9 10
36 37 34 29 30 28 24 22 19 23 21 19 18 18 18 14 13 12 12 11 10 11
33 34 33 30 30 30 30 26 25 24 23 20 19 19 19 19 16 14 14 13 13 13
35 33 31 33 29 29 32 30 29 26 25 23 20 19 18 18 17 17 17 16 15 15
35 32 33 33 32 31 34 34 29 26 27 24 24 21 20 21 19 18 19 18 18 18
36 36 35 33 32 31 35 35 33 31 28 26 25 23 21 20 20 20 19 20 20 20
36 35 33 31 32 32 31 35 36 32 29 27 25 25 25 24 22 22 21 21 21 21
34 33 34 33 32 30 32 33 30 29 28 27 28 30 33 31 24 23 22 23 23 24
33 34 34 33 32 32 32 29 29 28 28 29 32 37 37 37 33 28 27 26 25 24
34 33 32 31 31 31 30 29 29 28 29 29 32 38 39 38 38 33 32 31 31 30
34 32 31 31 31 29 27 27 28 27 27 29 32 37 37 35 30 32 34 33 32 31
34 33 33 32 31 30 29 28 26 27 28 29 30 32 36 33 27 28 29 28 29 32
33 32 31 30 28 27 27 25 26 26 26 26 28 30 34 32 30 28 26 25 24 24

GFSNIL_925_spd_048.txt.gz
Wind_Speed
30 27 26 23 20 19 17 16 13 14 15 14 12 11 9 9 10 8 8 9 8 7
31 30 27 25 22 21 18 15 15 17 17 16 15 14 11 11 10 9 9 9 9 10
33 31 30 25 24 21 21 19 16 17 18 18 17 16 14 12 12 11 11 11 10 10
35 33 30 29 27 24 22 20 19 18 18 19 18 17 17 15 13 13 13 12 12 13
35 33 32 30 29 25 24 23 22 20 19 20 20 19 19 18 17 17 16 15 15 15
35 34 33 31 30 27 25 25 24 22 22 21 21 20 20 19 19 18 18 18 18 18
37 37 35 34 31 29 28 26 26 25 23 23 23 23 22 21 20 20 19 19 19 20
38 37 36 33 32 32 30 28 27 27 26 24 24 25 25 24 23 21 21 21 20 21
36 36 36 34 33 32 31 29 27 29 28 27 27 28 29 27 24 23 22 23 22 22
36 36 36 36 34 33 32 29 29 28 29 29 30 30 31 32 29 24 24 24 23 23
35 35 34 34 35 33 32 31 30 29 30 30 31 32 34 34 31 29 29 27 27 27
37 35 35 34 33 33 31 29 30 30 30 31 31 33 35 35 28 29 31 31 31 31
37 36 35 34 34 33 31 31 30 30 30 31 30 30 34 34 28 28 28 28 29 33
34 34 32 31 31 32 32 28 29 28 28 29 29 29 30 33 31 29 27 27 27 27

GFSNIL_925_spd_051.txt.gz
Wind_Speed
27 25 26 21 19 19 18 15 19 17 15 13 12 10 10 9 10 9 9 9 10 7
32 30 26 26 27 18 18 15 15 15 15 16 14 13 13 12 11 9 10 11 11 10
33 32 29 26 23 24 19 19 10 18 17 17 17 16 16 14 14 12 12 11 12 11
36 33 33 27 27 24 21 18 19 15 17 19 19 19 18 18 12 16 14 13 11 12
37 36 34 33 29 26 26 23 20 20 19 20 21 21 21 20 18 17 16 16 16 15
37 37 36 35 33 30 28 26 25 24 22 22 23 22 22 22 21 19 19 19 18 18
39 39 38 35 34 33 31 29 27 26 26 24 24 24 24 23 23 22 21 20 20 20
40 40 38 37 35 34 33 32 30 28 27 27 25 25 26 24 23 23 22 21 22 23
39 38 39 38 37 35 33 33 31 29 28 29 28 27 28 28 25 24 23 22 23 23
37 39 38 39 37 37 35 32 31 30 29 30 31 29 29 31 29 24 25 24 23 23
36 38 37 37 38 37 36 35 32 31 31 31 32 33 33 31 32 29 28 24 24 25
39 37 36 37 37 36 34 33 33 32 32 32 32 33 36 33 28 29 29 28 29 28
38 37 38 38 37 35 34 34 34 33 32 32 32 33 34 35 30 28 28 28 30 32
37 38 37 35 34 34 34 33 32 31 30 30 33 32 35 38 34 31 27 28 27 27

GFSNIL_925_spd_054.txt.gz
Wind_Speed
28 32 27 14 18 14 16 21 25 24 18 15 12 11 10 9 10 9 9 5 7 8
29 29 26 21 21 17 20 13 22 25 19 15 15 12 13 12 10 9 11 11 10 11
37 34 28 32 24 24 19 20 20 22 20 19 17 16 15 15 13 12 13 11 14 11
36 36 38 27 33 25 28 17 19 16 18 19 20 18 17 19 15 17 16 15 11 16
36 37 36 39 28 33 27 27 18 21 17 19 19 20 21 21 19 17 19 18 16 12
37 37 37 37 37 33 34 27 27 21 24 21 22 22 23 23 22 20 19 20 19 19
40 39 39 36 39 34 33 33 30 29 26 26 25 25 24 24 24 23 22 20 23 21
39 40 38 37 37 39 36 34 32 31 29 29 28 28 27 26 25 26 24 24 23 24
39 38 37 39 36 37 38 35 33 32 32 30 31 30 29 30 28 26 27 26 26 24
38 38 40 37 38 36 37 36 35 34 32 32 33 34 32 32 32 29 27 26 27 25
37 40 38 38 37 38 35 37 36 34 34 33 34 36 35 32 34 32 29 28 29 29
40 38 39 39 39 38 35 35 35 34 34 35 33 35 38 36 33 35 35 35 34 27
40 38 41 41 39 37 37 37 35 35 35 35 35 35 37 39 37 28 30 30 33 33
38 40 37 35 35 35 35 33 33 33 32 32 36 34 38 38 40 32 28 28 27 29

GFSNIL_925_spd_057.txt.gz
Wind_Speed
32 31 26 15 27 30 26 26 26 22 19 16 15 11 11 11 12 9 9 8 6 5
34 36 33 26 18 25 24 24 27 28 24 19 17 16 14 12 10 9 8 9 10 10
41 40 38 33 26 19 24 19 12 32 28 23 20 17 16 14 12 12 12 13 11 9
39 41 39 35 33 25 22 18 17 29 28 25 23 18 18 18 15 17 16 14 14 14
38 40 42 39 37 34 28 26 18 25 27 26 26 23 21 21 19 18 17 19 20 18
36 41 39 42 37 38 36 32 31 25 30 28 27 24 24 24 23 22 19 21 21 19
40 38 42 39 44 38 35 36 35 32 29 29 28 27 25 25 26 25 24 21 22 20
40 38 35 37 40 47 37 41 38 34 33 30 30 29 28 28 28 29 27 24 26 23
38 40 39 37 37 42 43 37 42 40 37 33 31 32 31 30 31 30 30 30 28 27
41 39 40 37 37 37 41 38 35 38 36 38 38 34 33 32 32 35 33 32 32 30
41 42 38 38 39 36 35 38 36 35 36 37 39 39 36 35 34 36 35 35 32 31
43 41 38 41 39 40 35 34 37 35 35 36 36 38 40 37 38 39 40 38 36 35
42 41 42 42 40 35 37 36 31 34 35 38 38 38 39 41 41 39 38 41 40 37
42 42 42 38 37 38 34 34 34 33 33 32 36 37 40 40 42 37 33 33 35 41

GFSNIL_925_spd_060.txt.gz
Wind_Speed
34 31 26 23 31 32 32 28 26 25 21 18 18 15 15 14 12 11 10 8 4 4
37 35 33 23 26 31 32 30 30 26 24 21 20 18 15 15 13 13 12 11 10 10
42 39 38 33 25 26 27 31 28 30 28 24 22 20 18 15 14 15 13 12 11 11
42 42 40 38 35 29 24 29 28 28 32 29 25 23 21 18 15 15 14 13 13 14
43 46 43 42 42 37 31 24 30 26 28 35 30 25 24 21 19 18 17 16 16 14
37 40 43 42 44 42 37 30 23 23 25 33 33 28 26 24 22 21 20 17 18 19
39 39 42 43 41 44 40 40 32 28 28 34 34 31 28 27 25 24 23 22 21 20
37 39 40 41 42 45 47 42 42 36 32 32 35 35 34 31 28 26 25 25 24 24
38 36 37 40 42 43 46 47 43 41 41 37 37 37 36 32 30 28 28 28 27 26
37 37 37 35 38 38 41 43 41 40 41 40 40 38 36 33 32 31 32 32 31 29
36 36 36 36 36 36 35 38 38 39 40 40 42 41 39 36 35 35 35 36 35 33
33 33 35 37 37 36 33 34 37 37 37 40 40 42 44 42 38 38 39 37 36 36
11 32 37 37 37 37 37 36 33 35 37 38 39 39 42 41 41 39 39 40 40 38
24 25 37 37 36 37 36 34 34 34 35 37 41 40 41 42 43 37 33 34 34 41

GFSNIL_925_spd_063.txt.gz
Wind_Speed
31 30 25 20 19 26 27 25 23 22 18 15 15 14 14 14 12 11 10 7 4 3
31 33 32 26 20 22 27 28 26 23 21 20 16 17 16 17 16 14 13 12 9 8
36 34 34 31 26 20 24 27 27 26 23 22 20 18 18 17 16 15 15 14 13 12
40 36 35 33 31 28 20 23 25 27 25 25 23 21 20 19 16 16 16 15 13 13
43 41 39 37 36 32 30 23 21 24 25 26 28 26 24 22 20 19 17 16 15 15
37 40 41 41 39 36 33 32 27 22 27 28 28 30 29 25 23 22 21 18 17 16
37 40 43 42 42 41 39 36 33 30 25 29 31 27 31 29 27 26 24 22 21 20
35 38 41 40 42 43 43 41 38 34 33 28 28 28 31 31 30 28 27 26 25 25
33 34 37 40 41 40 42 45 43 41 37 37 33 31 31 33 34 33 31 30 28 27
36 34 37 39 38 39 40 40 41 46 44 42 39 38 36 35 36 37 36 34 32 30
33 36 34 34 37 39 37 39 39 38 40 42 42 43 40 38 38 40 40 38 35 33
36 35 34 34 35 36 33 33 35 37 37 39 40 40 44 40 40 41 43 42 39 36
25 31 33 35 34 33 33 34 32 33 38 40 38 39 41 41 42 38 39 40 41 42
17 15 25 30 33 30 31 29 28 31 33 36 38 39 38 40 43 38 34 35 34 38

GFSNIL_925_spd_066.txt.gz
Wind_Speed
34 30 26 22 21 17 18 18 15 14 13 9 9 9 9 11 11 8 7 5 3 2
36 33 30 24 21 17 17 19 20 17 15 14 12 10 11 12 12 11 11 10 8 7
39 35 32 28 24 20 14 16 19 20 18 16 16 13 12 12 11 13 14 13 12 11
39 37 33 33 30 25 20 15 18 20 18 19 18 16 16 14 13 13 13 13 13 12
41 39 37 35 35 31 28 24 16 17 16 17 20 19 19 18 16 16 15 14 13 13
38 39 39 38 36 35 33 30 26 20 18 19 19 20 21 23 21 18 18 16 15 14
36 40 42 40 39 37 36 35 33 30 26 22 20 21 21 21 25 23 20 19 19 18
40 40 40 39 40 39 39 39 38 36 32 29 25 23 23 23 24 28 25 22 21 22
33 36 40 41 40 40 39 39 41 40 39 37 34 31 27 24 24 27 28 26 24 23
35 34 36 38 38 39 41 40 40 41 41 41 40 38 35 32 28 28 29 29 28 28
35 34 33 32 35 39 38 37 39 40 41 42 44 42 40 38 36 34 34 33 32 32
27 33 34 32 34 36 32 34 36 37 37 39 42 41 41 41 40 40 40 39 37 36
22 27 30 36 33 33 32 34 33 34 37 39 41 39 37 37 39 34 38 38 40 39
12 18 27 29 32 31 32 29 29 30 33 36 38 40 36 34 38 35 32 33 31 38

GFSNIL_925_spd_069.txt.gz
Wind_Speed
28 22 20 19 16 14 13 12 11 12 10 8 9 9 9 8 7 8 6 4 2 2
29 28 22 20 21 16 15 12 13 12 11 10 9 8 9 8 9 9 7 6 5 3
28 30 27 24 24 20 18 16 13 15 15 13 12 12 11 10 9 10 8 7 7 7
26 28 28 25 26 25 22 17 14 15 15 15 15 14 14 12 11 11 10 10 9 8
32 28 25 29 28 29 26 23 18 15 15 15 16 16 16 13 13 12 11 10 10 10
26 26 28 28 30 29 29 26 22 20 17 16 17 18 18 17 16 14 13 12 12 11
30 31 30 29 29 31 33 31 27 26 24 20 19 19 18 18 17 17 16 15 14 14
29 33 37 33 30 31 29 31 34 29 26 25 21 20 19 18 18 17 17 17 16 16
25 26 27 30 36 30 31 32 30 30 29 28 27 27 27 23 18 18 17 19 20 19
24 25 27 28 27 28 29 30 29 30 31 35 35 34 35 32 25 21 19 20 20 20
23 25 25 24 27 28 28 28 30 29 31 34 36 41 41 40 36 27 26 24 24 25
17 21 23 25 26 26 24 25 28 28 29 29 37 39 40 40 33 32 32 31 30 29
10 13 19 22 24 24 23 24 24 25 26 30 34 37 38 37 32 31 34 33 33 35
16 11 12 14 19 21 23 23 23 25 26 28 30 34 37 35 34 32 31 33 32 35

GFSNIL_925_spd_072.txt.gz
Wind_Speed
18 16 16 15 12 13 10 9 10 11 10 9 9 10 9 9 10 8 5 4 2 2
20 20 18 15 13 14 11 10 10 12 12 10 10 11 10 10 9 8 9 7 6 6
22 20 19 17 16 14 13 13 12 14 13 12 12 10 10 10 10 11 10 10 9 8
22 22 20 20 18 18 16 15 16 15 15 14 13 13 12 10 9 11 11 11 11 11
22 21 21 21 21 19 19 18 16 14 16 16 16 15 14 13 11 12 12 12 12 12
21 22 23 22 21 20 20 21 19 17 15 15 16 17 17 16 14 13 13 12 12 13
20 23 24 25 22 21 21 22 23 21 18 16 17 18 18 17 16 16 16 16 15 14
18 20 22 23 23 23 23 23 24 24 23 21 20 21 21 20 18 18 18 17 17 16
18 18 19 20 23 25 25 24 24 24 25 25 26 25 24 23 20 19 19 18 19 19
17 18 18 19 20 21 25 28 28 27 27 28 29 30 30 29 27 23 21 21 21 21
10 15 16 18 20 22 24 25 28 30 30 30 30 31 33 35 32 29 28 26 24 24
21 9 8 18 20 22 23 25 26 28 29 29 31 32 34 35 32 33 33 32 32 30
20 22 12 18 20 23 25 25 24 26 28 29 30 30 35 37 31 30 32 34 35 37
21 22 19 21 20 21 23 25 25 25 26 27 28 29 30 33 33 32 32 33 33 36

GFSNIL_925_spd_075.txt.gz
Wind_Speed
16 14 14 11 12 9 12 14 16 11 10 10 10 8 9 9 9 10 7 6 8 8
18 17 15 13 11 10 10 8 11 10 11 10 9 10 10 11 12 9 9 7 7 10
20 18 16 13 14 12 9 10 7 13 11 11 10 9 10 13 11 11 10 12 13 12
19 20 19 18 16 16 13 10 9 6 10 10 11 12 12 12 8 11 12 12 8 10
18 19 20 19 19 17 17 15 14 12 13 14 14 13 14 14 12 12 13 14 14 13
19 19 19 20 19 19 18 18 17 17 16 15 16 16 16 16 15 13 14 14 14 15
17 17 19 20 19 19 20 19 19 19 19 18 17 17 17 18 17 16 16 15 15 15
11 14 16 18 20 21 20 21 21 21 21 20 19 20 21 20 19 19 18 18 17 19
8 7 14 16 18 19 22 22 22 22 23 24 25 25 24 22 23 24 22 21 21 20
17 10 12 11 17 18 21 22 24 25 24 26 28 28 27 27 26 24 22 22 20 22
18 16 11 14 17 17 19 20 23 25 26 26 28 32 32 32 31 30 30 25 22 25
18 19 18 16 14 18 18 21 22 23 25 27 29 31 33 35 31 32 32 32 33 29
15 16 18 18 20 21 20 21 22 23 27 28 29 29 33 33 33 31 32 32 35 39
16 17 15 15 15 20 21 22 22 23 25 27 28 30 33 32 33 34 31 32 30 33

GFSNIL_925_spd_078.txt.gz
Wind_Speed
14 10 12 15 15 12 7 9 5 11 11 10 8 8 8 8 10 6 6 8 7 12
20 17 13 16 14 9 6 13 13 12 12 10 11 9 11 12 12 9 12 9 11 11
22 20 18 10 9 6 12 13 6 13 13 12 12 10 11 11 11 11 12 11 12 13
25 23 19 16 11 15 7 4 16 19 12 12 13 12 13 13 8 13 14 13 7 16
25 23 22 20 17 15 15 14 11 9 10 17 13 14 14 13 12 14 13 12 12 10
24 23 23 24 21 19 18 18 16 16 16 14 14 14 15 15 15 13 15 14 14 14
28 27 24 20 21 19 20 19 20 18 19 18 17 17 17 16 18 15 13 16 16 16
13 16 12 14 15 18 20 22 21 21 21 20 21 19 20 20 20 18 19 18 16 18
3 6 8 10 16 16 19 20 21 23 22 24 23 23 23 22 21 22 23 21 20 21
14 12 7 8 11 15 19 19 21 22 23 24 26 27 25 22 25 23 23 24 24 22
13 12 13 14 12 7 13 16 20 21 23 25 25 27 30 28 25 27 29 27 22 26
19 15 11 11 14 13 11 12 20 22 23 23 25 28 29 29 32 30 31 30 32 33
16 17 18 16 16 18 15 14 14 19 24 27 28 27 30 32 31 27 29 30 33 35
17 18 18 17 17 15 18 18 20 20 23 26 26 28 30 32 33 31 28 28 28 31

GFSNIL_925_spd_081.txt.gz
Wind_Speed
14 12 10 17 14 13 14 15 15 13 14 12 12 11 9 10 10 5 4 4 6 7
21 19 15 16 12 14 17 13 15 15 11 12 12 10 11 11 7 9 8 9 7 8
24 22 20 13 13 20 15 14 11 18 15 14 14 12 10 8 11 11 11 16 11 11
23 21 21 18 14 14 12 13 18 19 16 14 12 13 14 12 12 9 13 11 11 8
26 23 21 21 20 16 16 16 14 14 16 17 17 15 14 14 14 12 17 17 17 13
22 22 22 23 23 20 16 17 15 13 17 22 16 15 19 15 15 12 14 14 13 14
6 15 21 22 23 22 22 20 20 18 19 17 17 20 18 18 18 17 17 15 16 17
4 6 9 4 18 22 22 22 22 21 21 20 22 22 22 22 21 19 21 20 18 18
5 11 12 19 27 16 20 22 23 22 22 24 22 24 24 24 25 23 21 22 23 23
4 6 6 7 13 9 14 19 21 22 22 24 25 26 24 25 30 29 27 25 24 23
9 7 8 7 8 8 8 4 10 18 20 23 25 27 28 30 28 23 26 28 28 29
13 13 15 13 13 12 13 11 9 9 15 19 23 25 27 27 30 31 32 29 28 29
16 15 16 16 15 17 15 16 15 14 12 15 21 22 24 25 29 33 33 32 33 33
16 17 17 19 18 19 20 18 17 18 18 18 19 22 24 23 26 32 32 29 28 31

GFSNIL_925_spd_084.txt.gz
Wind_Speed
15 12 11 16 17 18 15 14 12 13 13 10 10 10 10 9 8 6 6 3 4 4
18 16 14 13 16 16 15 16 14 17 16 14 12 12 11 12 10 11 8 6 5 5
22 20 18 14 14 15 18 18 20 20 19 15 14 15 14 14 14 11 11 9 9 9
26 25 23 20 16 16 18 17 19 18 18 17 18 14 16 14 12 12 12 12 6 8
23 23 24 25 21 16 17 18 17 16 17 16 18 16 16 16 14 14 12 13 14 14
18 22 23 24 24 22 20 21 18 16 17 19 21 18 17 17 15 14 15 15 17 15
3 11 15 20 21 21 22 22 23 21 18 18 20 20 21 20 21 18 17 16 17 15
7 4 3 5 3 8 17 23 25 22 21 20 21 21 22 22 21 21 20 21 21 20
2 3 8 10 12 13 14 15 21 25 23 23 23 21 24 23 23 23 24 23 24 25
4 1 3 10 8 10 17 16 16 23 22 23 24 24 23 22 24 26 26 26 27 25
10 6 4 7 9 7 8 11 11 13 18 21 23 21 23 24 25 27 27 25 28 31
14 12 12 9 10 14 12 12 13 11 14 14 16 16 20 22 24 26 29 27 28 28
12 11 11 12 11 11 13 13 13 14 16 16 15 15 16 20 23 26 27 29 30 31
10 11 11 12 12 14 14 15 15 15 15 16 15 18 17 17 21 24 27 30 29 30

GFSNIL_925_spd_087.txt.gz
Wind_Speed
15 15 13 12 11 13 13 14 12 13 17 14 10 10 10 10 8 6 5 4 3 4
18 16 15 13 15 16 15 15 15 14 15 15 13 12 12 12 10 10 10 8 6 3
22 19 17 14 13 18 15 17 15 15 17 17 15 14 13 12 11 11 10 10 8 8
22 20 19 18 14 14 14 16 17 17 19 19 17 15 15 13 12 12 13 12 11 7
19 20 21 20 19 16 15 16 18 16 17 17 17 17 16 15 15 14 14 12 12 14
5 9 14 17 18 19 21 18 16 15 17 17 17 17 17 15 15 16 15 15 15 15
9 5 3 2 5 12 17 19 18 19 19 16 18 18 19 18 16 17 18 17 17 15
6 7 7 5 2 4 5 10 15 16 19 19 18 18 18 20 20 20 21 20 20 20
7 2 2 6 5 4 8 10 14 16 17 18 21 21 20 21 22 22 23 24 23 22
6 4 2 3 6 6 7 8 10 12 10 15 19 20 21 21 21 22 23 23 23 23
13 10 6 5 4 6 7 9 12 13 13 13 11 17 18 20 21 23 24 25 23 24
13 12 12 12 11 10 7 9 9 13 14 15 17 13 12 14 16 20 23 24 25 25
11 10 9 9 9 9 11 10 11 11 12 16 15 14 12 11 13 15 18 21 23 23
10 10 11 10 10 9 10 9 11 11 8 8 12 15 21 14 12 14 14 17 21 20

GFSNIL_925_spd_090.txt.gz
Wind_Speed
17 13 11 9 7 10 14 11 12 12 12 12 9 7 8 9 8 6 3 3 4 4
16 14 13 10 9 9 12 11 12 11 11 14 13 9 9 10 10 9 8 6 5 5
17 14 12 11 10 10 13 13 15 13 14 12 15 13 12 11 11 10 8 7 7 7
18 17 15 13 11 11 10 10 14 13 13 14 14 14 13 13 12 11 10 10 9 9
16 16 15 15 13 11 11 11 11 12 12 13 14 15 14 13 13 12 11 10 10 10
7 13 12 13 14 13 13 13 13 13 13 11 12 13 13 15 15 15 14 10 11 12
10 8 5 3 2 5 7 10 12 12 12 12 12 12 16 17 16 14 14 12 11 11
8 7 7 6 2 2 2 3 4 8 11 11 13 13 14 15 16 17 16 15 14 15
7 7 2 5 5 3 4 3 5 3 7 9 10 13 14 16 17 18 17 18 16 17
7 6 5 4 3 4 6 5 5 6 7 5 4 8 12 14 16 18 19 18 18 18
13 11 7 5 5 3 4 5 6 8 9 9 12 11 9 11 15 17 19 19 19 20
10 9 9 9 8 9 8 6 6 4 9 12 12 10 9 10 8 12 14 17 19 19
9 9 10 9 9 9 8 8 6 8 7 12 11 13 16 12 9 9 10 11 11 12
8 9 9 8 8 8 7 8 10 9 9 8 9 9 10 13 16 16 13 10 6 5

GFSNIL_925_spd_093.txt.gz
Wind_Speed
16 10 7 7 5 6 9 7 8 9 8 10 8 6 7 6 6 4 2 1 2 2
17 15 10 9 7 4 7 8 9 10 9 10 10 9 7 7 8 7 6 5 4 2
15 13 11 10 8 6 6 9 9 10 10 10 10 12 11 9 10 10 8 7 8 7
16 15 14 10 8 6 7 8 9 10 11 13 12 13 14 11 11 12 10 10 10 8
15 16 16 15 12 9 7 6 6 7 10 11 11 12 14 13 10 12 11 9 10 9
13 14 16 14 14 13 11 11 10 8 6 8 9 10 11 11 11 12 13 13 11 10
13 9 11 10 9 9 9 9 10 10 8 6 7 6 8 10 11 14 12 11 13 12
14 10 5 5 6 6 5 4 5 7 8 7 7 6 7 7 9 11 12 12 13 14
13 10 7 6 7 5 5 6 5 3 4 5 6 10 12 12 11 11 11 12 13 13
12 11 10 7 7 6 5 4 5 6 7 6 2 5 11 13 12 12 13 14 14 14
12 9 7 6 6 4 3 5 5 6 7 6 7 2 3 5 7 8 9 10 12 13
11 10 9 8 7 6 4 5 5 6 9 7 10 10 4 3 3 3 3 5 7 9
10 9 8 7 6 6 6 6 8 11 10 8 8 9 10 6 7 7 6 3 2 2
8 8 8 6 6 7 7 8 9 10 9 7 6 7 11 12 8 8 7 7 6 8

GFSNIL_925_spd_096.txt.gz
Wind_Speed
10 9 9 8 6 8 7 7 6 10 9 10 7 6 5 6 7 6 4 2 2 2
11 9 8 6 6 6 5 6 8 10 10 10 11 9 7 8 8 7 8 5 5 6
11 9 8 9 9 6 4 6 6 9 9 9 10 10 8 8 9 9 9 9 7 8
12 9 8 9 9 7 6 7 9 9 11 10 10 10 10 8 7 9 10 9 9 10
12 13 11 11 11 10 9 8 6 6 9 10 10 11 11 11 9 10 10 9 10 11
13 10 12 12 11 12 11 8 8 7 6 8 9 9 10 11 10 10 10 9 10 10
16 21 13 10 11 11 11 11 12 11 10 8 6 6 7 9 9 9 10 11 10 10
14 15 12 7 6 5 5 6 9 11 10 10 9 9 9 9 9 10 11 12 11 12
12 10 11 7 5 4 4 1 2 6 7 9 7 13 14 12 10 10 11 12 11 11
13 9 8 8 5 4 4 4 4 2 3 4 0 8 9 11 10 12 12 11 11 11
9 7 6 8 7 5 2 2 2 5 5 4 5 2 3 3 5 9 9 10 9 10
9 9 6 6 4 3 3 4 5 4 6 4 4 3 3 3 1 2 2 2 6 7
8 7 6 6 6 4 5 5 6 5 4 5 4 3 2 2 2 2 1 1 4 6
7 6 6 4 5 4 5 6 5 5 4 4 4 5 4 3 2 1 3 1 2 4

GFSNIL_925_spd_099.txt.gz
Wind_Speed
8 8 6 5 6 5 7 9 14 10 8 8 7 6 5 7 8 8 4 4 8 10
8 9 3 2 5 7 9 5 5 12 9 9 10 8 5 8 6 6 6 6 6 9
11 10 7 7 7 10 10 5 5 7 8 8 9 10 8 12 11 9 8 11 9 7
12 12 10 8 9 9 9 6 3 4 7 7 9 10 11 13 6 9 11 13 9 7
12 13 10 10 9 10 8 7 5 9 9 11 11 13 13 12 12 11 12 12 11 12
9 9 12 7 8 11 11 9 9 9 9 11 13 12 12 13 12 12 11 11 11 10
9 12 11 13 12 13 12 12 13 12 11 10 10 12 12 13 12 12 11 11 11 11
14 14 15 16 15 12 11 11 14 13 12 11 12 10 13 11 11 11 12 11 12 14
10 10 10 13 10 10 8 7 6 9 9 7 9 7 10 11 7 11 11 12 12 13
10 6 6 6 6 9 5 5 4 4 4 2 5 6 9 11 12 10 12 12 11 12
12 9 6 3 3 3 4 3 3 4 6 5 5 2 1 4 6 9 9 8 8 9
8 6 4 3 3 3 6 5 5 4 6 4 4 3 1 2 5 2 3 4 4 3
7 7 5 3 2 0 1 2 3 6 4 3 4 5 3 3 5 2 6 2 3 4
8 5 4 3 2 4 1 4 5 4 3 2 3 5 6 4 4 5 5 6 4 1

GFSNIL_925_spd_102.txt.gz
Wind_Speed
8 5 6 7 2 2 7 8 9 13 11 9 8 5 4 1 5 8 8 12 9 10
7 8 2 3 3 3 7 8 3 5 10 8 6 6 5 5 5 8 10 9 14 13
12 9 6 4 4 3 2 4 12 13 13 8 8 11 10 9 5 8 11 11 8 10
10 10 9 7 5 2 2 1 9 9 11 12 12 12 13 13 11 6 11 12 10 8
12 12 12 8 1 4 5 4 6 10 10 10 12 12 13 13 11 10 11 10 10 10
7 10 6 3 7 7 10 10 8 8 12 14 15 14 14 15 15 13 10 11 10 10
13 7 6 4 9 13 10 8 10 10 12 13 11 11 11 13 13 12 12 11 10 11
13 12 11 12 11 13 16 13 9 11 12 10 8 9 11 11 10 12 12 10 9 12
13 10 8 10 10 11 13 10 9 9 7 7 5 7 8 10 8 9 6 9 10 11
8 6 3 2 2 4 8 9 6 4 6 1 3 6 5 7 9 11 8 9 10 10
10 7 5 5 3 2 2 5 5 6 4 3 6 5 4 4 5 6 6 5 2 4
9 7 4 2 1 2 3 2 1 3 4 3 4 4 4 3 9 4 3 6 5 1
13 10 8 5 5 4 2 2 4 6 4 2 5 8 4 5 3 6 8 6 4 5
10 8 6 3 3 3 3 5 5 6 1 3 4 7 9 5 4 4 4 4 2 3

GFSNIL_925_spd_105.txt.gz
Wind_Speed
10 10 7 5 6 9 9 7 9 11 9 7 6 3 5 6 4 6 8 4 8 10
15 10 9 10 6 7 9 10 10 13 13 10 11 10 8 5 5 6 10 8 7 7
16 12 9 10 9 6 5 7 12 11 10 10 10 9 9 6 5 6 8 8 5 11
15 14 12 11 9 6 3 2 8 9 8 9 10 9 11 13 11 10 9 9 9 10
20 17 14 12 12 10 8 5 4 4 5 9 7 10 11 11 11 7 11 11 10 10
18 13 9 10 11 13 10 8 6 4 6 7 10 13 13 14 14 13 12 10 11 10
12 13 12 9 5 7 6 4 9 8 8 7 7 10 13 13 12 12 12 9 10 10
11 11 9 7 9 9 9 8 6 7 4 3 5 12 12 9 5 9 10 8 9 8
10 9 7 6 8 8 10 9 7 8 5 4 4 6 6 5 6 6 5 5 9 7
9 8 7 6 6 5 4 3 3 5 3 1 4 6 3 3 4 6 5 4 5 5
16 15 12 9 7 7 9 8 10 8 4 2 2 3 5 5 2 3 3 4 3 2
15 12 10 9 7 6 6 9 9 9 7 4 6 4 3 4 8 6 8 7 5 5
15 14 11 9 10 8 8 10 15 12 5 3 4 6 3 3 5 7 8 4 3 4
13 10 9 8 7 7 8 10 9 7 4 4 5 6 5 3 4 5 4 2 3 5

GFSNIL_925_spd_108.txt.gz
Wind_Speed
15 14 12 12 14 13 14 14 16 14 12 8 6 5 4 2 3 0 0 1 5 4
18 17 15 13 10 12 12 12 15 17 15 13 10 8 7 7 4 3 3 4 3 4
21 16 12 12 11 8 10 10 13 15 13 12 12 10 8 9 7 6 5 5 3 3
21 19 14 13 12 10 8 7 12 12 9 11 10 10 10 12 9 9 10 8 8 7
21 18 17 14 12 12 9 6 7 9 10 10 9 7 10 11 10 10 8 9 9 9
19 19 18 16 14 14 10 10 8 7 6 6 9 9 11 10 10 11 11 11 9 9
29 23 19 19 17 13 10 11 11 8 7 7 7 8 10 12 12 10 7 9 11 11
18 16 18 17 12 10 10 8 4 7 10 9 8 6 5 6 6 9 8 7 7 9
17 15 14 10 9 10 10 9 9 9 7 6 6 5 5 7 6 7 10 9 7 5
15 14 10 9 8 6 7 8 9 11 10 8 3 1 0 3 3 6 8 8 7 7
15 13 10 8 8 7 6 10 13 12 10 7 4 2 1 0 6 8 9 8 8 5
21 18 13 10 10 9 10 14 12 9 7 6 8 5 3 4 7 9 9 9 7 6
20 17 15 13 10 9 12 13 12 11 6 4 6 5 2 4 7 8 9 7 5 3
16 15 14 13 12 11 15 16 14 9 7 4 5 5 4 2 2 5 5 4 3 1

GFSNIL_925_spd_111.txt.gz
Wind_Speed
18 16 16 13 13 14 15 18 16 14 12 13 8 6 9 6 5 4 3 1 2 0
19 17 16 13 12 15 14 13 14 15 15 14 11 10 8 6 4 3 3 2 2 1
19 16 15 14 14 11 12 12 12 15 15 13 13 11 10 8 6 4 2 2 3 3
19 16 14 12 11 10 7 9 11 13 15 13 13 13 12 11 10 9 6 6 5 6
19 17 16 15 14 13 11 9 7 11 13 10 11 9 11 11 12 11 9 7 8 8
18 13 17 18 18 16 14 10 7 6 7 7 9 11 12 12 11 11 10 9 9 6
17 18 24 21 19 17 15 13 12 11 10 9 8 10 11 12 14 14 12 10 10 9
24 26 26 27 24 17 14 6 6 8 11 12 11 10 9 9 10 11 12 9 7 7
28 32 33 28 15 11 9 7 10 10 9 8 8 8 9 10 9 10 12 11 8 7
19 17 15 13 12 11 10 11 13 11 10 9 7 7 6 6 7 9 10 11 13 11
23 19 15 14 13 12 11 12 11 11 9 6 3 3 3 6 6 9 11 10 12 8
24 19 16 13 11 8 11 14 14 12 9 5 5 4 2 3 5 7 6 6 6 4
20 20 17 14 10 8 10 13 13 12 8 6 4 4 2 2 4 8 8 8 6 5
19 16 13 11 8 10 15 15 13 11 8 5 5 4 3 3 5 6 6 5 5 3

GFSNIL_925_spd_114.txt.gz
Wind_Speed
18 17 16 15 13 13 14 15 15 13 11 12 9 7 10 7 6 6 6 4 2 3
17 15 14 14 11 11 13 12 14 16 15 13 12 9 8 8 6 6 7 6 4 3
18 15 13 12 11 11 10 12 12 12 16 15 15 12 12 11 9 8 6 6 5 7
17 15 11 10 10 10 6 8 10 12 12 16 14 14 14 13 12 12 9 8 7 9
18 15 13 11 9 9 10 9 9 10 11 14 11 12 14 14 14 15 14 13 12 11
21 19 16 13 9 10 12 12 11 9 11 14 13 12 12 14 14 15 16 15 14 12
23 18 16 9 14 11 13 16 16 13 11 12 11 12 13 13 14 16 17 16 16 15
20 13 12 12 13 19 16 15 13 14 15 14 13 12 10 10 11 12 13 14 12 14
15 14 13 17 20 20 21 20 15 9 8 11 11 12 10 11 10 8 9 11 12 10
20 21 13 20 23 26 19 15 13 12 14 12 10 10 9 6 4 4 7 10 12 9
18 17 18 20 20 18 18 17 17 15 10 9 6 6 5 3 5 4 4 5 8 12
19 18 21 24 23 21 16 14 12 9 7 5 3 3 3 5 6 7 9 7 6 7
15 15 19 16 12 9 12 13 13 11 8 5 3 3 2 1 2 4 6 6 5 5
7 17 18 17 14 10 12 14 13 11 8 5 4 4 1 2 3 4 4 4 3 3

GFSNIL_925_spd_117.txt.gz
Wind_Speed
18 13 12 11 9 9 10 11 13 14 12 13 12 8 9 7 6 7 5 5 3 3
18 16 12 13 12 9 11 9 13 15 15 13 12 11 8 8 9 7 7 7 6 5
16 16 14 12 12 11 10 10 10 11 13 13 13 13 12 10 10 9 8 7 8 8
17 16 15 12 11 10 10 6 9 9 11 13 14 15 14 13 12 12 10 9 9 9
19 16 15 13 10 8 7 6 6 7 10 11 13 14 14 13 13 14 15 15 13 13
22 20 16 14 12 9 7 7 7 8 9 10 11 10 11 13 14 15 16 15 14 13
22 20 18 16 14 11 7 5 7 9 9 9 9 11 12 14 14 14 15 18 16 14
26 24 20 18 13 8 12 6 4 4 8 11 11 12 12 10 10 11 11 12 15 11
25 22 20 17 15 13 11 9 6 7 8 5 8 14 14 13 12 11 9 8 6 7
23 25 19 13 13 14 12 14 14 10 10 10 9 11 10 10 9 8 8 7 8 8
21 17 20 19 15 15 12 12 10 12 13 13 13 14 10 7 6 5 3 2 5 8
23 22 18 15 16 13 10 13 15 16 13 11 9 9 6 7 7 9 8 7 8 9
18 18 16 15 16 12 15 17 16 14 11 8 5 5 3 2 2 2 2 3 3 5
0 7 11 10 10 12 13 15 13 13 11 9 5 4 1 1 2 3 2 2 2 3